Regional Weather Roundup
Issued by NWS Charleston, SC

Current Version | Previous Version | Graphics & Text | Print | Product List | Glossary On
Versions: 1 2 3 4 5 6 7 8 9 10 11 12 13 14 15 16 17 18 19 20 21 22 23 24 25 26 27 28 29 30 31 32 33 34 35 36 37 38 39 40 41 42 43 44 45 46 47 48 49 50
000
ASUS42 KCHS 010910
RWRCHS

REGIONAL WEATHER ROUNDUP
NATIONAL WEATHER SERVICE CHARLESTON SC
500 AM EDT MON SEP 01 2014

NOTE: "FAIR" INDICATES FEW OR NO CLOUDS BELOW 12,000 FEET WITH NO
SIGNIFICANT WEATHER AND/OR OBSTRUCTIONS TO VISIBILITY.

NOT ALL STATIONS ARE QUALITY CONTROLLED BY THE NATIONAL
WEATHER SERVICE. USE DATA WITH CAUTION...ESPECIALLY
DEWPOINT OBSERVATIONS.

SCZ027-030-031-034>040-042>050-011000-
...SOUTH CAROLINA...

CITY           SKY/WX    TMP DP  RH WIND       PRES   REMARKS
N CHARLESTON   PTCLDY    80  75  84 CALM      30.08R
WATERFRONT PRK   N/A     82 N/A N/A CALM        N/A
FORT JOHNSON   NOT AVBL
MOUNT PLEASANT FAIR      75  75 100 CALM      30.08R FOG
JOHNS ISLAND   SUNNY     79  77  94 CALM      30.07S
PINOPOLIS        N/A     81  75  83 SW2       29.99S
MONCKS CORNER    N/A     75  75 100 CALM      30.08S
SUMMERVILLE    FAIR      73  73 100 CALM      30.08S
BEAUFORT MCAS  CLEAR     79  75  87 NW3       30.07S
BEAUFORT ARPT  FAIR      79  77  94 SW3       30.07R
HILTON HEAD IS PTCLDY    79  77  94 W5        30.08R
GEORGETOWN     NOT AVBL
WALTERBORO     SUNNY     75 N/A N/A CALM      30.08S
ORANGEBURG     CLEAR     73  71  93 CALM      30.09R
BARNWELL       FAIR      73  72  94 CALM      30.09S
AIKEN          CLOUDY    72  72 100 CALM      30.13S FOG
MANNING        FAIR      77 N/A N/A CALM      30.08S
KINGSTREE      NOT AVBL
COLUMBIA       MOCLDY    74  71  91 CALM      30.09R
SUMTER         PTCLDY    75  73  96 SW2       30.08R
FLORENCE       PTCLDY    74  72  93 CALM      30.09R
MYRTLE BEACH   CLEAR     77  73  88 SW3       30.08S
N MYRTLE BEACH CLEAR     76  74  93 W3        30.08S

$$

GAZ063-065-086>088-099>101-113>116-118-119-134-136>141-150-011000-
...GEORGIA...

CITY           SKY/WX    TMP DP  RH WIND       PRES   REMARKS
SAVANNAH ARPT  CLEAR     75  71  87 CALM      30.08S
HUNTER AAF     PTCLDY    74  72  93 CALM      30.06S
FORT STEWART   CLEAR     71  69  93 E2        30.07R
STATESBORO     NOT AVBL
SYLVANIA       SUNNY     65  65 100 CALM      30.09S FOG
CLAXTON        NOT AVBL
THOMSON        CLEAR     73  73 100 CALM      30.13S
AUGUSTA-BUSH   FOG       71  70  96 CALM      30.08S VSB 3/4
AUGUSTA-DANIEL PTCLDY    76  73  91 CALM      30.10R
SWAINSBORO     FAIR      73  73 100 CALM      30.09S
VIDALIA          N/A     72  72 100 CALM      30.08S
ALMA           PTCLDY    74  73  97 CALM      30.07S
WAYCROSS       PTCLDY    77  76  98 CALM      30.07S
JESUP            N/A     73  73 100 CALM      30.08R FOG
BRUNSWICK      CLEAR     73  70  88 CALM      30.08S
SAINT SIMONS   CLEAR     76  73  91 W3        30.07R

$$

SCZ027-028-034-036>038-045-046-048>050-GAZ119-141-011000-
...LAKE AND SUPPLEMENTAL COASTAL OBSERVATIONS...

STATION/POSITION TIME  TEMP    WIND        PRES    WAVE   SWELL
                       AIR SEA DIR/SP/G            HT/PER HT/PER/DIR
                 (UTC) (F)     (DEG/KT/KT) (MB)    (FT/S) (FT/S/D)
UPR LAKE MARION  NOT AVBL
WINYAH BAY       0800   79     270/  2     1018.0S
LAKE MURRAY      0800   77     250/  5/  8 1018.3S
ACE BASIN NERRS  0800   78        CALM     1018.0S
FORT PULASKI     0900   79     290/  9/ 10 1018.5S
SAPELO ISLAND    0800   79     250/  3     1019.0R

$$

ANZ835-935-AMZ111-154-330-350-352-354-374-450-454-472-011000-
...C-MAN AND BUOY OBSERVATIONS...

STATION/POSITION TIME  TEMP    WIND        PRES    WAVE   SWELL
                       AIR SEA DIR/SP/G            HT/PER HT/PER/DIR
                 (UTC) (F)     (DEG/KT/KT) (MB)    (FT/S) (FT/S/D)
FOLLY BEACH CMAN 0800   82     210/ 11/ 12 1018.6F
BUOY 41004       0900   82 83  210/  8/ 10 1018.1R   3/ 9   3/ 9
BUOY 41008       0900   83 85  210/ 12/ 14 1018.1S   2/10   2/110/10
5E ST. MARYS GA  0900      84                N/A     2/10
FRYING PAN BUOY  NOT AVBL
BUOY 41025       0900   81     200/ 16/ 19 1018.8R   3/ 9   2/ 90/ 9
CAPE LOOKOUT NC  0800   81     210/  9/ 11 1018.7F
BUOY 41002       0803   80 83  170/  6/  6 1020.7F   3/ 9   3/130/ 9
BUOY 41010       0900   82 84  150/  4/  6 1019.1F   3/ 8   3/100/ 8
BUOY 41012       NOT AVBL
ST AUGUSTINE FL  0900   77     250/  3/  4 1018.9F
CAPERS NEARSHORE 0800   82     220/ 12/ 14   N/A
FRIPP NEARSHORE  NOT AVBL


$$



USA.gov is the U.S. government's official web portal to all federal, state and local government web resources and services.